• MPC Preparation (Info)

  • MPEC 2000-P36 : 2000 PZ5

    The following Minor Planet Electronic Circular may be linked-to from your own Web pages, but must not otherwise be redistributed electronically.

    A form allowing access to any MPEC is at the bottom of this page.


    Read MPEC 2000-P35 Read MPEC 2000-P37


    M.P.E.C. 2000-P36                                Issued 2000 Aug. 7, 21:07 UT
    
         The Minor Planet Electronic Circulars contain information on unusual
             minor planets and routine data on comets.  They are published
       on behalf of Commission 20 of the International Astronomical Union by the
              Minor Planet Center, Smithsonian Astrophysical Observatory,
                              Cambridge, MA 02138, U.S.A.
    
                 Prepared using the Tamkin Foundation Computer Network
    
                                  MPC@CFA.HARVARD.EDU
              URL http://cfa-www.harvard.edu/iau/mpc.html  ISSN 1523-6714
    
                                       2000 PZ5
    
    Observations:
         K00P05Z* C2000 08 02.36742 23 36 41.39 -10 33 03.6          17.9        704
         K00P05Z  C2000 08 02.38167 23 36 42.90 -10 33 01.9          18.0        704
         K00P05Z  C2000 08 02.39606 23 36 44.52 -10 33 01.3          18.5        704
         K00P05Z  C2000 08 02.41031 23 36 45.97 -10 33 00.1          18.3        704
         K00P05Z  C2000 08 02.42457 23 36 47.49 -10 32 59.2          18.2        704
         K00P05Z  C2000 08 03.35929 23 38 32.78 -10 31 33.7          17.7        704
         K00P05Z  C2000 08 03.36520 23 38 33.34 -10 31 33.4          18.2        704
         K00P05Z  C2000 08 03.37377 23 38 34.21 -10 31 32.1          17.6        704
         K00P05Z  C2000 08 03.37929 23 38 34.82 -10 31 31.6          17.4        704
         K00P05Z  C2000 08 03.38857 23 38 35.71 -10 31 31.7          18.1        704
         K00P05Z  C2000 08 03.39344 23 38 36.27 -10 31 30.7          17.4        704
         K00P05Z  C2000 08 03.39932 23 38 36.84 -10 31 29.4                      711
         K00P05Z  C2000 08 03.40299 23 38 37.14 -10 31 30.0          18.0        704
         K00P05Z  C2000 08 03.40307 23 38 37.24 -10 31 29.3                      711
         K00P05Z  C2000 08 03.40699 23 38 37.64 -10 31 29.0                      711
         K00P05Z  C2000 08 03.40755 23 38 37.74 -10 31 29.8          17.7        704
         K00P05Z  C2000 08 03.42170 23 38 39.22 -10 31 28.1          17.3        704
         K00P05Z  C2000 08 03.54938 23 38 54.400-10 30 56.66         17.7 R      422
         K00P05Z  C2000 08 03.55329 23 38 54.894-10 30 55.48         17.7 R      422
         K00P05Z  C2000 08 03.55498 23 38 55.013-10 30 56.26         17.9 R      422
         K00P05Z  C2000 08 03.64271 23 39 03.89 -10 30 46.2          17.0 R      474
         K00P05Z  C2000 08 03.64837 23 39 04.51 -10 30 44.9          17.3 R      474
         K00P05Z  C2000 08 03.70329 23 39 10.31 -10 30 40.6          17.2 R      474
         K00P05Z  C2000 08 03.70485 23 39 10.47 -10 30 40.7          17.3 R      474
         K00P05Z  C2000 08 03.70740 23 39 10.74 -10 30 40.4          17.3 R      474
         K00P05Z  C2000 08 04.38743 23 40 26.40 -10 30 08.2                      711
         K00P05Z  C2000 08 04.39145 23 40 26.81 -10 30 07.7                      711
         K00P05Z  C2000 08 04.39518 23 40 27.20 -10 30 07.5                      711
         K00P05Z  C2000 08 04.71470 23 41 02.103-10 29 24.29         17.6 R      422
         K00P05Z  C2000 08 04.71900 23 41 02.559-10 29 23.99         17.7 R      422
         K00P05Z  C2000 08 05.38405 23 42 15.49 -10 28 55.0                      711
         K00P05Z  C2000 08 05.38865 23 42 15.94 -10 28 54.6                      711
         K00P05Z  C2000 08 05.39313 23 42 16.39 -10 28 54.0                      711
         K00P05Z  C2000 08 05.44785 23 42 22.28 -10 28 50.3                      670
         K00P05Z  C2000 08 05.49882 23 42 27.51 -10 28 46.8                      670
         K00P05Z  C2000 08 05.72464 23 42 52.37 -10 28 33.2          19.0 V      402
         K00P05Z  C2000 08 05.72625 23 42 52.52 -10 28 33.1                      402
         K00P05Z  C2000 08 05.72786 23 42 52.68 -10 28 33.1                      402
         K00P05Z  C2000 08 05.72947 23 42 52.85 -10 28 32.9                      402
         K00P05Z  C2000 08 06.41135 23 44 06.54 -10 27 48.4                      670
         K00P05Z  C2000 08 06.45880 23 44 11.25 -10 27 45.5                      670
         K00P05Z  C2000 08 07.43925 23 45 55.77 -10 26 50.7                      670
         K00P05Z  C2000 08 07.50382 23 46 02.14 -10 26 47.8                      670
    
    Observer details:
    402 Dynic Astronomical Observatory.  Observer A. Sugie.  0.60-m f/3.7 reflector
        + CCD.
    422 Loomberah.  Observer G. J. Garradd.  0.45-m f/5.4 reflector + CCD.
    474 Mount John Observatory, Lake Tekapo.  Observers A. C. Gilmore, A. P.
        Marles.  1.0-m f/7.7 reflector + CCD.
    670 Camarillo.  Observer J. E. Rogers.  0.30-m f/6.7 Helin Telescope + CCD.
    704 Lincoln Laboratory ETS, New Mexico.  Observers M. Blythe, F. Shelly,
        M. Bezpalko, M. Elowitz, R. Huber, L. Manguso.  Measurers J. Stuart,
        R. Sayer, J. B. Evans, H. Viggh.  1.0-m f/2.15 reflector + CCD.
    711 McDonald Observatory.  Observers P. J. Shelus, J. G. Ries.  0.76-m
        reflector + CCD.
    
    Orbital elements:
    2000 PZ5
    Epoch 2000 Aug. 4.0 TT = JDT 2451760.5                  Hergenrother
    M 354.69097              (2000.0)            P               Q
    n   0.20683412     Peri.  242.53547     +0.95453107     +0.29144809
    a   2.8317480      Node   100.46461     -0.24604923     +0.88892951
    e   0.5141335      Incl.    3.65436     -0.16831578     +0.35335865
    P   4.77           H   17.5           G   0.15
    From 43 observations 2000 Aug. 2-7.
    
    Ephemeris:
    2000 PZ5                 a,e,i = 2.83, 0.51, 4                   q = 1.3759
    Date    TT    R. A. (2000) Decl.     Delta      r     Elong.  Phase     V
    2000 08 04    23 39.72   -10 30.4    0.463    1.402   140.1    27.6    17.8
    2000 08 14    23 56.91   -10 23.6    0.427    1.386   145.3    24.6    17.5
    2000 08 24    00 11.00   -10 27.6    0.403    1.377   150.9    20.9    17.2
    2000 09 03    00 21.32   -10 35.6    0.390    1.377   157.0    16.6    17.0
    2000 09 13    00 27.93   -10 36.6    0.390    1.384   163.0    12.3    16.9
    2000 09 23    00 31.54   -10 20.0    0.403    1.399   167.1     9.2    16.9
    2000 10 03    00 33.44   -09 38.4    0.430    1.422   166.3     9.6    17.1
    2000 10 13    00 35.26   -08 29.4    0.471    1.451   161.1    12.9    17.4
    2000 10 23    00 38.18   -06 56.7    0.527    1.487   154.2    17.0    17.9
    2000 11 02    00 42.93   -05 06.4    0.597    1.528   146.9    20.8    18.3
    2000 11 12    00 49.79   -03 04.5    0.682    1.573   139.7    24.0    18.8
    2000 11 22    00 58.64   -00 56.8    0.781    1.623   132.8    26.5    19.2
    2000 12 02    01 09.26   +01 13.1    0.893    1.675   126.1    28.4    19.6
    2000 12 12    01 21.39   +03 22.3    1.017    1.730   119.7    29.6    20.0
    2000 12 22    01 34.74   +05 28.8    1.152    1.788   113.4    30.3    20.4
    2001 01 01    01 49.11   +07 31.3    1.296    1.846   107.4    30.6    20.7
    2001 01 11    02 04.32   +09 28.8    1.450    1.906   101.4    30.4    21.0
    2001 01 21    02 20.20   +11 20.2    1.610    1.967    95.5    29.9    21.3
    2001 01 31    02 36.65   +13 05.2    1.777    2.028    89.7    29.1    21.6
    2001 02 10    02 53.57   +14 43.0    1.947    2.089    84.0    28.0    21.8
    2001 02 20    03 10.85   +16 13.2    2.120    2.150    78.3    26.8    22.0
    2001 03 02    03 28.45   +17 35.3    2.293    2.211    72.7    25.3    22.2
    2001 03 12    03 46.29   +18 49.0    2.466    2.272    67.1    23.8    22.4
    2001 03 22    04 04.30   +19 54.1    2.636    2.332    61.5    22.1    22.5
    
    Carl W. Hergenrother         (C) Copyright 2000 MPC           M.P.E.C. 2000-P36
    

    Read MPEC 2000-P35 Read MPEC 2000-P37


    MPEC number:

    Enter an MPEC number in one of the following forms:

    • 1997-B01 (the full form)
    • J97B01 (the packed version of the full form)
    • B01 (the abbreviated form)